SCP
-0 -0 -0 -0 0 0 0 0 0 -0 0 0 0 -0 -0 -0 0 0 0 -0 -0 -0 0 -0 -0 -0 -0 -0 -0 0 0 0 0 0 0 0 0 0 0 0 0 0 0 0 0 0 0 0 0
-0 -0 0 0 -0 0 0 0 0 -0 -0 -0 -0 0 0 0 0 -0 0 -0 -0 -0 0 0 -0 -0 -0 -0 0 0 0 0 0 0 0 0 0 0 0 0 0 0 0 0 0 0 0 0 0
0 0 -0 -0 -0 -0 -0 -0 0 0 -0 -0 -0 0 0 0 0 0 -0 -0 -0 0 0 0 -0 -0 0 0 0 0 0 0 0 0 0 0 0 0 0 0 0 0 0 0 0 0 0 0 0
0 0 0 -0 -0 -0 0 0 -0 0 0 -0 -0 -0 0 0 -0 0 -0 -0 -0 0 0 -0 -0 -0 0 0 0 0 0 0 0 0 0 0 0 0 0 0 0 0 0 0 0 0 0 0 0
0 0 -0 -0 -0 -0 -0 -0 -0 0 0 -0 0 -0 0 0 0 -0 -0 -0 -0 0 0 0 0 0 0 0 0 0 0 0 0 0 0 0 0 0 0 0 0 0 0 0 0 0 0 0 0
0 0 0 -0 -0 -0 -0 0 -0 0 0 -0 0 0 0 0 -0 -0 -0 -0 0 0 0 0 0 0 0 0 0 0 0 0 0 0 0 0 0 0 0 0 0 0 0 0 0 0 0 0 0
-0 0 0 -0 -0 -0 -0 -0 0 0 0 0 -0 0 0 0 -0 -0 -0 -0 0 0 0 0 0 0 0 0 0 0 0 0 0 0 0 0 0 0 0 0 0 0 0 0 0 0 0 0 0
0 -0 0 0 0 -0 0 0 0 0 0 0 0 0 0 -0 -0 0 0 0 0 0 0 0 0 0 0 0 0 0 0 0 0 0 0 0 0 0 0 0 0 0 0 0 0 0 0 0 0
-0 0 0 -0 -0 -0 0 0 0 0 0 0 0 0 0 -0 -0 0 0 0 0 0 0 0 0 0 0 0 0 0 0 0 -0 0 -0 0 0 0 0 0 0 0 0 0 0 -0 0 0 0
-0 0 0 0 -0 0 0 0 0 0 0 0 0 0 -0 -0 -0 0 0 0 0 0 0 0 0 0 0 0 0 0 0 0 0 -0 -0 -0 0 0 0 0 0 0 0 0 0 -0 0 0 0
0 -0 0 -0 -0 0 0 0 0 0 0 -0 0 0 -0 -0 -0 0 0 -0 -0 -0 0 0 0 0 0 0 0 0 0 0 0 -0 0 -0 -0 -0 0 0 0 0 0 0 0 0 0 0 0
-0 -0 0 0 0 -0 0 0 0 0 0 0 0 -0 -0 0 0 0 0 0 0 0 0 0 0 0 0 0 0 0 0 0 0 0 0 0 -0 -0 0 0 0 0 0 0 0 0 0 0 0
0 0 -0 -0 0 -0 -0 0 0 0 0 0 0 0 0 0 0 0 0 0 0 0 0 0 0 0 0 0 0 0 0 0 0 0 0 0 0 0 0 0 0 0 0 0 0 0 0 0 0
-0 0 0 -0 0 0 0 0 0 0 0 0 0 1 0 0 0 0 -0 0 0 0 0 0 0 0 0 0 0 0 0 0 0 0 0 0 0 0 0 0 0 0 0 0 0 0 0 0 0
-0 -0 -0 0 -0 0 0 0 0 -0 0 0 0 0 0 0 0 0 -0 -0 0 0 0 0 0 0 0 0 0 0 0 0 0 0 0 0 0 0 0 0 0 0 0 0 0 0 0 0 0
-0 -0 -0 -0 0 0 0 -0 0 0 0 0 0 0 0 0 0 0 -0 0 0 0 0 0 0 0 0 0 0 0 0 0 0 0 0 0 0 0 0 0 0 0 0 0 0 0 0 0 0
0 0 0 0 -0 0 0 0 0 0 0 0 0 0 0 0 0 0 0 0 0 0 0 0 0 0 0 0 0 0 0 0 0 0 0 0 0 0 0 0 0 0 0 0 0 0 0 0 0
0 0 0 -0 -0 -0 -0 0 0 0 0 0 0 0 0 0 0 0 0 0 0 0 0 0 0 0 0 0 0 0 0 0 0 0 0 0 0 0 0 0 0 0 0 0 0 0 0 0 0
0 0 0 -0 -0 0 0 0 0 0 -0 -0 -0 0 0 -0 0 0 0 1 0 0 0 0 0 0 0 0 0 0 0 0 0 0 0 -0 0 0 0 0 0 0 0 0 0 0 0 -0 0
0 0 0 0 -0 0 0 0 0 -0 -0 -0 -0 0 0 -0 0 0 0 0 0 0 0 0 0 0 0 0 0 0 0 0 0 0 -0 0 0 0 0 0 0 0 0 0 0 0 0 0 0
-0 0 0 0 0 0 0 0 0 -0 -0 0 0 0 0 -0 0 0 0 0 0 0 0 0 0 0 0 0 0 0 0 0 0 0 0 0 0 0 0 0 0 0 0 0 0 0 0 0 0
0 -0 -0 0 0 0 0 0 0 0 0 0 0 -0 0 -0 0 0 0 0 0 0 0 0 0 0 0 0 0 0 0 0 0 0 0 0 0 0 0 0 0 0 0 0 0 0 0 0 0
0 0 -0 0 0 0 0 0 0 0 0 0 0 0 0 0 0 0 0 0 0 0 0 0 0 0 0 0 0 0 0 0 0 0 0 0 0 0 0 0 0 0 0 0 0 0 0 0 0
0 0 0 0 0 0 0 0 0 0 0 0 0 0 0 0 0 0 0 0 0 0 0 0 0 0 0 0 0 0 0 0 0 0 0 0 0 0 0 0 0 0 0 0 0 0 0 0 0
0 0 0 0 0 0 0 0 0 0 0 0 0 0 0 0 0 0 0 0 0 0 0 0 0 0 0 0 0 0 0 0 0 0 0 0 0 0 0 0 0 0 0 0 0 0 0 0 0
0 0 0 0 0 0 0 0 0 0 0 0 0 0 0 0 0 0 0 0 0 0 0 0 0 0 0 0 0 0 0 0 0 0 0 0 0 0 0 0 0 0 0 0 0 0 0 0 0
0 0 0 0 0 0 0 0 0 0 0 0 0 0 0 0 0 0 0 0 0 0 0 0 0 0 0 0 0 0 0 0 0 0 0 0 0 0 0 0 0 0 0 0 0 0 0 0 0
0 0 0 0 0 0 0 0 0 0 0 0 0 0 0 0 0 0 0 -0 0 0 0 0 0 0 0 0 0 0 0 0 0 0 0 0 0 0 0 0 0 0 0 0 0 0 0 0 0
0 0 0 0 0 0 0 0 0 0 0 0 0 0 0 0 0 -0 -0 -0 0 0 0 0 0 0 0 0 0 0 0 0 0 0 0 0 0 0 0 0 0 0 0 0 0 0 0 0 0
0 0 0 0 0 0 0 0 0 0 0 0 0 0 0 0 -0 -0 0 0 0 0 0 0 0 0 0 0 0 0 0 0 0 0 0 0 0 0 0 0 0 0 0 0 0 0 0 0 0
Wind_Speed_500mb
8 7 7 7 7 9 1 4 5 14 3 9 14 15 21 11 3 5 27 42 31 36 38 33 28 25 22 19 16 14 14 12 11 9 8 7 6 6 6 6 6 8 9 9 9 10 9 10 12
4 11 10 7 8 4 7 6 8 21 17 40 31 21 13 6 11 24 52 34 31 32 39 32 27 23 19 16 15 13 11 9 7 6 5 4 4 5 7 7 9 11 12 13 13 14 14 14 16
11 7 4 7 5 8 5 9 21 24 46 19 13 18 11 12 20 50 37 40 34 37 37 32 28 24 21 18 15 12 9 6 4 2 2 3 4 5 6 7 9 11 13 14 14 15 16 16 17
21 9 10 6 8 9 8 8 32 15 20 6 30 15 10 1 38 33 41 42 37 37 36 32 27 24 22 19 15 11 9 7 6 4 3 2 3 4 6 7 9 10 10 11 10 11 12 14 15
27 12 7 6 8 10 22 14 19 7 13 21 10 12 18 29 19 31 43 44 39 37 37 35 30 26 23 19 15 14 12 9 6 4 3 3 3 5 7 10 15 17 15 15 14 14 12 9 7
7 2 2 1 12 19 15 43 15 20 23 22 18 22 16 23 30 39 43 38 33 37 35 34 29 24 22 19 18 16 12 9 7 6 5 4 5 8 9 13 19 21 19 16 14 13 11 9 7
14 6 7 6 12 13 14 26 21 23 26 11 33 10 10 27 33 44 46 37 32 31 26 32 27 24 21 20 19 17 14 10 7 4 4 4 3 7 12 13 17 23 23 18 17 14 11 6 2
13 12 8 9 10 12 15 16 34 39 13 31 25 15 14 44 45 51 42 41 35 32 27 31 32 28 24 23 20 15 11 6 3 1 1 3 1 2 10 10 14 20 24 18 27 18 12 6 4
9 3 6 11 6 10 19 11 25 22 36 19 26 17 13 44 53 53 49 50 45 44 41 38 38 34 32 26 17 14 9 6 5 3 2 3 4 8 11 11 14 15 20 21 24 18 13 7 7
16 4 7 8 27 6 12 30 25 17 26 7 18 18 21 52 60 65 67 68 64 56 51 43 41 41 41 29 19 10 10 8 3 1 2 2 5 8 5 9 15 9 17 19 21 19 19 17 19
16 11 14 17 42 38 33 24 34 23 7 31 40 35 40 57 63 64 64 67 60 51 52 51 42 42 40 33 22 14 13 10 11 9 9 5 3 4 4 13 19 12 18 25 23 21 19 14 21
4 22 20 28 35 25 5 35 10 22 25 42 46 36 48 58 65 65 62 64 67 64 59 58 48 43 37 31 24 13 14 15 16 18 11 10 8 7 11 17 23 22 24 21 33 33 28 28 25
8 5 10 18 36 34 26 7 18 19 26 39 45 42 51 51 57 54 54 53 59 73 62 61 55 47 39 37 25 17 19 21 18 23 15 19 17 16 24 25 25 30 23 29 31 27 22 24 26
9 7 14 14 19 13 8 13 6 27 14 16 32 26 19 19 41 66 57 61 70 70 74 60 59 51 40 34 27 22 18 17 17 18 20 26 26 29 32 26 26 23 34 33 31 26 32 33 37
15 9 11 10 17 12 5 1 13 41 26 28 30 36 30 15 18 87 85 78 57 68 71 55 60 54 52 41 39 38 37 29 25 26 29 28 30 36 39 31 26 19 18 28 35 39 36 41 40
7 8 6 8 12 9 6 12 14 31 50 45 29 26 25 57 22 30 36 52 52 49 63 55 54 55 57 46 48 47 38 31 31 27 37 35 34 36 39 33 25 27 26 33 29 34 41 50 48
13 7 9 11 40 4 3 6 18 13 24 18 19 38 36 11 28 25 43 48 40 53 54 52 41 43 41 48 42 39 32 33 29 25 30 31 35 33 38 35 30 30 31 36 39 40 42 50 49
12 10 11 15 22 6 19 5 12 2 4 15 39 45 31 7 28 14 44 39 25 44 54 35 36 36 45 41 34 25 27 28 23 24 30 30 45 41 35 34 34 34 31 30 33 40 26 37 46
10 8 10 23 22 3 15 7 9 13 12 19 33 32 10 4 12 35 32 50 40 51 53 54 22 53 45 37 33 26 22 26 28 23 45 40 49 48 37 39 38 36 38 34 36 36 30 32 32
23 18 16 14 12 10 18 9 12 15 12 17 30 23 5 7 16 23 29 38 48 62 60 45 17 42 45 38 36 26 23 33 51 48 29 36 39 38 37 38 39 44 43 37 43 42 38 36 34
18 13 10 14 6 10 15 7 7 13 28 30 30 23 7 22 35 40 33 36 48 44 32 24 14 38 39 38 27 20 21 4 25 23 33 47 36 40 38 39 42 45 43 47 47 51 43 36 39
7 21 19 15 5 7 6 7 10 8 14 12 25 5 19 22 24 22 24 23 30 27 20 14 22 22 26 20 16 17 26 10 12 18 14 22 20 27 37 41 42 41 41 50 47 51 47 43 47
18 19 27 15 8 6 9 10 12 9 13 14 26 25 29 25 22 25 24 15 14 26 21 10 21 22 25 17 5 9 4 8 14 22 23 31 32 38 43 45 34 39 37 45 41 44 48 51 50
26 8 12 7 7 4 6 7 8 3 8 7 14 24 28 31 29 18 15 18 25 24 12 8 13 13 11 14 4 4 12 16 27 33 42 40 40 51 55 59 58 48 45 46 50 53 52 54 52
6 8 6 8 8 6 7 4 12 11 15 4 18 17 20 23 19 21 18 14 15 9 6 7 2 7 13 5 7 10 13 14 18 35 39 41 51 54 57 50 51 56 54 56 59 58 54 48 48
2 10 9 8 5 8 3 8 10 8 24 34 35 30 33 32 29 30 21 15 14 12 14 20 20 13 5 2 8 3 9 21 28 31 33 36 43 47 50 65 73 70 62 56 51 46 43 41 41
4 8 10 10 4 4 7 8 14 7 14 37 36 32 44 41 35 30 24 22 20 20 19 12 11 10 6 8 14 19 12 16 23 29 40 45 45 49 58 71 59 58 59 49 48 42 41 36 32
8 15 8 2 11 8 4 3 9 8 11 15 16 34 41 34 29 27 24 22 22 21 21 18 13 11 17 11 8 13 23 31 38 31 39 40 40 52 61 51 53 57 52 48 45 45 45 43 42
2 5 10 8 4 10 7 11 13 13 8 18 30 41 41 40 30 26 25 20 17 21 23 20 17 15 8 9 18 28 36 33 28 37 34 44 59 50 57 52 51 48 53 45 39 37 38 36 29
6 6 11 8 8 5 5 10 10 17 5 38 41 43 48 41 29 28 26 19 24 29 32 25 12 10 12 19 28 27 17 27 32 33 39 55 53 47 49 47 48 42 41 35 30 30 28 25 29
Wind_Direction_500mb
28 36 8 32 59 63 237 278 177 292 41 65 96 118 110 48 78 195 147 161 180 185 178 175 170 165 163 159 150 150 153 156 155 149 156 158 167 185 207 225 237 253 258 258 261 262 254 251 251
319 327 21 54 86 87 250 249 217 253 111 107 83 98 60 92 127 152 158 177 181 185 180 174 167 166 164 164 165 164 168 168 165 167 172 199 220 240 247 255 266 271 271 273 271 269 263 260 254
29 45 80 92 129 184 168 216 234 255 145 156 116 77 106 145 171 159 172 169 178 178 177 174 173 174 174 174 174 177 178 177 182 194 203 230 249 254 264 275 279 286 289 285 282 278 275 263 255
35 19 52 68 203 258 225 227 215 246 117 170 123 85 96 249 162 178 171 174 180 184 181 181 179 177 178 179 181 179 171 155 137 120 95 75 46 19 7 2 359 347 331 317 310 297 282 277 272
17 16 31 351 287 276 239 262 231 175 113 142 156 158 139 160 185 185 180 182 193 188 186 188 182 181 180 178 179 170 159 149 142 123 101 78 56 55 45 52 23 2 346 337 336 332 329 325 299
92 95 84 316 273 254 255 239 244 131 138 148 112 133 164 196 205 192 187 189 197 192 187 187 186 186 184 180 175 167 160 147 128 123 124 123 111 82 69 55 26 15 4 350 340 332 324 322 332
136 147 234 241 265 274 229 214 195 146 155 166 145 122 185 190 194 185 182 192 185 184 193 196 197 192 188 183 174 165 158 151 148 139 170 170 130 95 75 36 33 26 15 15 15 3 347 333 95
205 165 311 214 256 219 139 125 151 139 174 157 178 167 192 195 183 180 183 193 189 193 188 185 191 191 187 179 169 167 161 151 108 318 188 210 245 72 39 34 29 26 14 20 22 16 27 32 87
232 357 294 319 13 288 145 133 160 164 151 172 200 204 232 182 174 181 186 195 202 200 199 197 195 185 177 171 172 172 173 155 83 154 306 244 320 339 359 14 11 4 10 4 4 7 15 356 324
172 130 244 56 269 193 244 165 161 155 142 130 171 196 195 174 177 183 189 197 205 205 203 206 201 188 177 183 180 185 190 189 145 278 216 184 312 337 13 343 346 326 346 340 334 350 340 331 330
173 191 181 258 255 277 250 210 191 165 227 191 198 186 185 179 183 192 196 197 208 214 207 205 202 193 191 191 188 201 212 211 220 225 225 218 253 311 256 309 319 316 312 324 319 322 313 291 310
154 225 221 254 266 284 196 214 107 176 207 220 226 221 190 191 192 197 203 205 208 219 219 208 203 203 200 196 195 212 212 228 230 232 225 231 237 268 298 290 291 288 290 302 303 297 292 285 300
227 282 318 292 246 294 283 155 163 177 188 203 209 199 194 196 204 209 215 215 216 217 225 217 204 204 206 201 195 205 211 222 237 239 233 238 240 274 280 274 272 282 287 289 289 307 286 279 290
223 208 216 277 209 271 263 141 112 208 23 96 167 156 138 79 13 337 261 224 221 221 222 224 210 212 203 206 202 207 212 208 239 260 285 281 261 276 285 262 289 269 283 275 285 292 286 282 289
249 259 308 327 304 297 263 316 87 78 82 90 135 155 151 190 357 303 285 255 230 233 223 218 209 202 198 194 200 210 224 234 248 263 273 278 276 277 284 272 282 273 259 271 285 280 287 290 294
20 57 302 256 290 287 137 286 34 147 149 124 122 148 207 226 298 316 268 245 257 227 200 192 194 199 205 207 223 228 234 239 245 250 251 257 264 270 273 275 268 276 277 292 287 290 290 292 290
14 308 298 329 317 261 36 359 339 115 105 118 208 218 231 258 329 296 209 240 216 190 193 188 201 212 229 220 222 236 246 249 242 272 275 270 269 273 266 265 271 284 299 293 291 294 300 302 291
288 314 278 321 307 291 77 3 357 37 194 256 265 289 351 333 339 282 232 245 235 205 205 206 243 240 220 221 237 242 235 231 254 262 268 286 278 278 268 272 287 294 288 306 305 294 293 324 309
197 257 280 285 285 111 105 92 312 323 283 276 289 297 56 236 291 241 258 240 207 204 200 154 230 231 229 231 233 233 234 239 266 276 285 288 285 282 280 280 280 280 288 303 298 282 290 311 314
324 312 293 284 311 112 125 150 229 258 267 271 289 288 168 281 100 146 135 169 197 198 205 210 247 227 233 224 222 239 250 303 256 285 273 299 278 281 285 278 288 294 289 285 297 287 284 298 308
276 222 245 237 359 60 145 152 244 244 254 259 255 282 255 139 132 147 173 176 190 203 222 243 245 220 226 213 249 276 287 342 264 258 279 301 273 277 275 283 280 281 274 284 291 282 275 288 298
281 255 265 281 36 262 155 255 317 337 313 259 10 349 78 95 142 154 183 169 195 215 233 233 218 214 233 230 248 294 324 229 259 301 319 297 272 242 270 278 281 271 271 280 280 279 278 284 295
237 268 267 275 218 116 352 82 271 347 337 343 38 57 70 88 107 135 175 201 179 202 195 228 221 238 258 238 262 306 21 292 293 274 270 270 278 285 290 297 291 300 296 285 281 271 273 283 290
267 254 335 48 92 17 310 126 266 281 268 301 61 65 83 108 122 101 111 117 164 181 212 209 283 287 306 182 207 328 324 303 282 283 286 293 295 293 298 300 302 301 295 289 285 289 284 285 290
45 80 338 356 22 232 261 32 234 257 268 347 138 91 95 112 110 104 107 144 149 176 276 285 37 78 130 172 327 317 313 303 296 299 303 301 305 305 308 309 311 308 302 297 294 293 291 288 285
31 130 160 219 177 256 108 230 248 229 319 99 114 119 118 111 115 106 105 103 84 85 94 94 98 77 56 316 293 320 284 299 295 296 308 315 317 315 312 310 305 302 299 300 295 290 291 287 287
195 77 133 98 331 247 178 260 302 43 39 112 123 134 119 118 118 115 109 100 106 114 113 110 102 101 151 208 240 260 278 304 316 321 319 318 329 324 319 318 309 300 291 291 290 292 305 291 288
161 146 83 337 176 230 244 258 230 202 158 131 143 143 133 132 133 123 131 125 124 130 134 136 157 185 192 209 247 298 322 322 326 342 346 333 323 315 316 314 311 312 302 293 287 287 285 292 291
39 102 62 127 146 176 178 251 207 216 198 174 175 150 150 152 147 159 157 137 140 147 154 160 149 157 195 284 315 328 325 336 355 343 325 327 324 323 321 316 313 310 303 292 288 289 283 279 284
283 154 133 139 233 253 172 264 195 191 211 171 165 164 163 158 155 168 167 167 166 173 168 171 196 256 288 316 323 323 358 346 328 324 329 330 327 323 326 324 318 319 315 293 280 283 291 283 287
Wind_Speed_850mb
8 7 7 7 7 9 1 4 5 14 3 9 14 15 21 11 3 5 27 42 31 36 38 33 28 25 22 19 16 14 14 12 11 9 8 7 6 6 6 6 6 8 9 9 9 10 9 10 12
4 11 10 7 8 4 7 6 8 21 17 40 31 21 13 6 11 24 52 34 31 32 39 32 27 23 19 16 15 13 11 9 7 6 5 4 4 5 7 7 9 11 12 13 13 14 14 14 16
11 7 4 7 5 8 5 9 21 24 46 19 13 18 11 12 20 50 37 40 34 37 37 32 28 24 21 18 15 12 9 6 4 2 2 3 4 5 6 7 9 11 13 14 14 15 16 16 17
21 9 10 6 8 9 8 8 32 15 20 6 30 15 10 1 38 33 41 42 37 37 36 32 27 24 22 19 15 11 9 7 6 4 3 2 3 4 6 7 9 10 10 11 10 11 12 14 15
27 12 7 6 8 10 22 14 19 7 13 21 10 12 18 29 19 31 43 44 39 37 37 35 30 26 23 19 15 14 12 9 6 4 3 3 3 5 7 10 15 17 15 15 14 14 12 9 7
7 2 2 1 12 19 15 43 15 20 23 22 18 22 16 23 30 39 43 38 33 37 35 34 29 24 22 19 18 16 12 9 7 6 5 4 5 8 9 13 19 21 19 16 14 13 11 9 7
14 6 7 6 12 13 14 26 21 23 26 11 33 10 10 27 33 44 46 37 32 31 26 32 27 24 21 20 19 17 14 10 7 4 4 4 3 7 12 13 17 23 23 18 17 14 11 6 2
13 12 8 9 10 12 15 16 34 39 13 31 25 15 14 44 45 51 42 41 35 32 27 31 32 28 24 23 20 15 11 6 3 1 1 3 1 2 10 10 14 20 24 18 27 18 12 6 4
9 3 6 11 6 10 19 11 25 22 36 19 26 17 13 44 53 53 49 50 45 44 41 38 38 34 32 26 17 14 9 6 5 3 2 3 4 8 11 11 14 15 20 21 24 18 13 7 7
16 4 7 8 27 6 12 30 25 17 26 7 18 18 21 52 60 65 67 68 64 56 51 43 41 41 41 29 19 10 10 8 3 1 2 2 5 8 5 9 15 9 17 19 21 19 19 17 19
16 11 14 17 42 38 33 24 34 23 7 31 40 35 40 57 63 64 64 67 60 51 52 51 42 42 40 33 22 14 13 10 11 9 9 5 3 4 4 13 19 12 18 25 23 21 19 14 21
4 22 20 28 35 25 5 35 10 22 25 42 46 36 48 58 65 65 62 64 67 64 59 58 48 43 37 31 24 13 14 15 16 18 11 10 8 7 11 17 23 22 24 21 33 33 28 28 25
8 5 10 18 36 34 26 7 18 19 26 39 45 42 51 51 57 54 54 53 59 73 62 61 55 47 39 37 25 17 19 21 18 23 15 19 17 16 24 25 25 30 23 29 31 27 22 24 26
9 7 14 14 19 13 8 13 6 27 14 16 32 26 19 19 41 66 57 61 70 70 74 60 59 51 40 34 27 22 18 17 17 18 20 26 26 29 32 26 26 23 34 33 31 26 32 33 37
15 9 11 10 17 12 5 1 13 41 26 28 30 36 30 15 18 87 85 78 57 68 71 55 60 54 52 41 39 38 37 29 25 26 29 28 30 36 39 31 26 19 18 28 35 39 36 41 40
7 8 6 8 12 9 6 12 14 31 50 45 29 26 25 57 22 30 36 52 52 49 63 55 54 55 57 46 48 47 38 31 31 27 37 35 34 36 39 33 25 27 26 33 29 34 41 50 48
13 7 9 11 40 4 3 6 18 13 24 18 19 38 36 11 28 25 43 48 40 53 54 52 41 43 41 48 42 39 32 33 29 25 30 31 35 33 38 35 30 30 31 36 39 40 42 50 49
12 10 11 15 22 6 19 5 12 2 4 15 39 45 31 7 28 14 44 39 25 44 54 35 36 36 45 41 34 25 27 28 23 24 30 30 45 41 35 34 34 34 31 30 33 40 26 37 46
10 8 10 23 22 3 15 7 9 13 12 19 33 32 10 4 12 35 32 50 40 51 53 54 22 53 45 37 33 26 22 26 28 23 45 40 49 48 37 39 38 36 38 34 36 36 30 32 32
23 18 16 14 12 10 18 9 12 15 12 17 30 23 5 7 16 23 29 38 48 62 60 45 17 42 45 38 36 26 23 33 51 48 29 36 39 38 37 38 39 44 43 37 43 42 38 36 34
18 13 10 14 6 10 15 7 7 13 28 30 30 23 7 22 35 40 33 36 48 44 32 24 14 38 39 38 27 20 21 4 25 23 33 47 36 40 38 39 42 45 43 47 47 51 43 36 39
7 21 19 15 5 7 6 7 10 8 14 12 25 5 19 22 24 22 24 23 30 27 20 14 22 22 26 20 16 17 26 10 12 18 14 22 20 27 37 41 42 41 41 50 47 51 47 43 47
18 19 27 15 8 6 9 10 12 9 13 14 26 25 29 25 22 25 24 15 14 26 21 10 21 22 25 17 5 9 4 8 14 22 23 31 32 38 43 45 34 39 37 45 41 44 48 51 50
26 8 12 7 7 4 6 7 8 3 8 7 14 24 28 31 29 18 15 18 25 24 12 8 13 13 11 14 4 4 12 16 27 33 42 40 40 51 55 59 58 48 45 46 50 53 52 54 52
6 8 6 8 8 6 7 4 12 11 15 4 18 17 20 23 19 21 18 14 15 9 6 7 2 7 13 5 7 10 13 14 18 35 39 41 51 54 57 50 51 56 54 56 59 58 54 48 48
2 10 9 8 5 8 3 8 10 8 24 34 35 30 33 32 29 30 21 15 14 12 14 20 20 13 5 2 8 3 9 21 28 31 33 36 43 47 50 65 73 70 62 56 51 46 43 41 41
4 8 10 10 4 4 7 8 14 7 14 37 36 32 44 41 35 30 24 22 20 20 19 12 11 10 6 8 14 19 12 16 23 29 40 45 45 49 58 71 59 58 59 49 48 42 41 36 32
8 15 8 2 11 8 4 3 9 8 11 15 16 34 41 34 29 27 24 22 22 21 21 18 13 11 17 11 8 13 23 31 38 31 39 40 40 52 61 51 53 57 52 48 45 45 45 43 42
2 5 10 8 4 10 7 11 13 13 8 18 30 41 41 40 30 26 25 20 17 21 23 20 17 15 8 9 18 28 36 33 28 37 34 44 59 50 57 52 51 48 53 45 39 37 38 36 29
6 6 11 8 8 5 5 10 10 17 5 38 41 43 48 41 29 28 26 19 24 29 32 25 12 10 12 19 28 27 17 27 32 33 39 55 53 47 49 47 48 42 41 35 30 30 28 25 29
Wind_Direction_850mb
28 36 8 32 59 63 237 278 177 292 41 65 96 118 110 48 78 195 147 161 180 185 178 175 170 165 163 159 150 150 153 156 155 149 156 158 167 185 207 225 237 253 258 258 261 262 254 251 251
319 327 21 54 86 87 250 249 217 253 111 107 83 98 60 92 127 152 158 177 181 185 180 174 167 166 164 164 165 164 168 168 165 167 172 199 220 240 247 255 266 271 271 273 271 269 263 260 254
29 45 80 92 129 184 168 216 234 255 145 156 116 77 106 145 171 159 172 169 178 178 177 174 173 174 174 174 174 177 178 177 182 194 203 230 249 254 264 275 279 286 289 285 282 278 275 263 255
35 19 52 68 203 258 225 227 215 246 117 170 123 85 96 249 162 178 171 174 180 184 181 181 179 177 178 179 181 179 171 155 137 120 95 75 46 19 7 2 359 347 331 317 310 297 282 277 272
17 16 31 351 287 276 239 262 231 175 113 142 156 158 139 160 185 185 180 182 193 188 186 188 182 181 180 178 179 170 159 149 142 123 101 78 56 55 45 52 23 2 346 337 336 332 329 325 299
92 95 84 316 273 254 255 239 244 131 138 148 112 133 164 196 205 192 187 189 197 192 187 187 186 186 184 180 175 167 160 147 128 123 124 123 111 82 69 55 26 15 4 350 340 332 324 322 332
136 147 234 241 265 274 229 214 195 146 155 166 145 122 185 190 194 185 182 192 185 184 193 196 197 192 188 183 174 165 158 151 148 139 170 170 130 95 75 36 33 26 15 15 15 3 347 333 95
205 165 311 214 256 219 139 125 151 139 174 157 178 167 192 195 183 180 183 193 189 193 188 185 191 191 187 179 169 167 161 151 108 318 188 210 245 72 39 34 29 26 14 20 22 16 27 32 87
232 357 294 319 13 288 145 133 160 164 151 172 200 204 232 182 174 181 186 195 202 200 199 197 195 185 177 171 172 172 173 155 83 154 306 244 320 339 359 14 11 4 10 4 4 7 15 356 324
172 130 244 56 269 193 244 165 161 155 142 130 171 196 195 174 177 183 189 197 205 205 203 206 201 188 177 183 180 185 190 189 145 278 216 184 312 337 13 343 346 326 346 340 334 350 340 331 330
173 191 181 258 255 277 250 210 191 165 227 191 198 186 185 179 183 192 196 197 208 214 207 205 202 193 191 191 188 201 212 211 220 225 225 218 253 311 256 309 319 316 312 324 319 322 313 291 310
154 225 221 254 266 284 196 214 107 176 207 220 226 221 190 191 192 197 203 205 208 219 219 208 203 203 200 196 195 212 212 228 230 232 225 231 237 268 298 290 291 288 290 302 303 297 292 285 300
227 282 318 292 246 294 283 155 163 177 188 203 209 199 194 196 204 209 215 215 216 217 225 217 204 204 206 201 195 205 211 222 237 239 233 238 240 274 280 274 272 282 287 289 289 307 286 279 290
223 208 216 277 209 271 263 141 112 208 23 96 167 156 138 79 13 337 261 224 221 221 222 224 210 212 203 206 202 207 212 208 239 260 285 281 261 276 285 262 289 269 283 275 285 292 286 282 289
249 259 308 327 304 297 263 316 87 78 82 90 135 155 151 190 357 303 285 255 230 233 223 218 209 202 198 194 200 210 224 234 248 263 273 278 276 277 284 272 282 273 259 271 285 280 287 290 294
20 57 302 256 290 287 137 286 34 147 149 124 122 148 207 226 298 316 268 245 257 227 200 192 194 199 205 207 223 228 234 239 245 250 251 257 264 270 273 275 268 276 277 292 287 290 290 292 290
14 308 298 329 317 261 36 359 339 115 105 118 208 218 231 258 329 296 209 240 216 190 193 188 201 212 229 220 222 236 246 249 242 272 275 270 269 273 266 265 271 284 299 293 291 294 300 302 291
288 314 278 321 307 291 77 3 357 37 194 256 265 289 351 333 339 282 232 245 235 205 205 206 243 240 220 221 237 242 235 231 254 262 268 286 278 278 268 272 287 294 288 306 305 294 293 324 309
197 257 280 285 285 111 105 92 312 323 283 276 289 297 56 236 291 241 258 240 207 204 200 154 230 231 229 231 233 233 234 239 266 276 285 288 285 282 280 280 280 280 288 303 298 282 290 311 314
324 312 293 284 311 112 125 150 229 258 267 271 289 288 168 281 100 146 135 169 197 198 205 210 247 227 233 224 222 239 250 303 256 285 273 299 278 281 285 278 288 294 289 285 297 287 284 298 308
276 222 245 237 359 60 145 152 244 244 254 259 255 282 255 139 132 147 173 176 190 203 222 243 245 220 226 213 249 276 287 342 264 258 279 301 273 277 275 283 280 281 274 284 291 282 275 288 298
281 255 265 281 36 262 155 255 317 337 313 259 10 349 78 95 142 154 183 169 195 215 233 233 218 214 233 230 248 294 324 229 259 301 319 297 272 242 270 278 281 271 271 280 280 279 278 284 295
237 268 267 275 218 116 352 82 271 347 337 343 38 57 70 88 107 135 175 201 179 202 195 228 221 238 258 238 262 306 21 292 293 274 270 270 278 285 290 297 291 300 296 285 281 271 273 283 290
267 254 335 48 92 17 310 126 266 281 268 301 61 65 83 108 122 101 111 117 164 181 212 209 283 287 306 182 207 328 324 303 282 283 286 293 295 293 298 300 302 301 295 289 285 289 284 285 290
45 80 338 356 22 232 261 32 234 257 268 347 138 91 95 112 110 104 107 144 149 176 276 285 37 78 130 172 327 317 313 303 296 299 303 301 305 305 308 309 311 308 302 297 294 293 291 288 285
31 130 160 219 177 256 108 230 248 229 319 99 114 119 118 111 115 106 105 103 84 85 94 94 98 77 56 316 293 320 284 299 295 296 308 315 317 315 312 310 305 302 299 300 295 290 291 287 287
195 77 133 98 331 247 178 260 302 43 39 112 123 134 119 118 118 115 109 100 106 114 113 110 102 101 151 208 240 260 278 304 316 321 319 318 329 324 319 318 309 300 291 291 290 292 305 291 288
161 146 83 337 176 230 244 258 230 202 158 131 143 143 133 132 133 123 131 125 124 130 134 136 157 185 192 209 247 298 322 322 326 342 346 333 323 315 316 314 311 312 302 293 287 287 285 292 291
39 102 62 127 146 176 178 251 207 216 198 174 175 150 150 152 147 159 157 137 140 147 154 160 149 157 195 284 315 328 325 336 355 343 325 327 324 323 321 316 313 310 303 292 288 289 283 279 284
283 154 133 139 233 253 172 264 195 191 211 171 165 164 163 158 155 168 167 167 166 173 168 171 196 256 288 316 323 323 358 346 328 324 329 330 327 323 326 324 318 319 315 293 280 283 291 283 287